Location: Peterborough
(44.3091°N, 78.3197°W)
Time: 17:36:19
(UTC-04:00)

Transit 4A - Pass Details

Date: 29 March 2023
Orbit: 864 x 980 km, 66.8° (Epoch: 04 June)

Event Time Altitude Azimuth Distance (km) Brightness Sun altitude
Rises 14:51:51 0° 330° (NNW) 3,562 10.8 44.3°
Reaches altitude 10° 14:54:24 10° 334° (NNW) 2,634 10.2 44.0°
Maximum altitude 15:00:28 59° 54° (NE) 1,087 8.6 43.4°
Drops below altitude 10° 15:06:40 10° 133° (SE) 2,694 10.5 42.7°
Sets 15:09:18 0° 137° (SE) 3,648 11.1 42.4°
